Miscellaneous Local Product
Issued by NWS Hastings, NE

Home | Current Version | Previous Version | Text Only | Print | Product List | Glossary Off
Versions: 1 2 3 4 5 6 7 8 9 10 11 12 13 14 15 16 17 18 19 20 21 22 23 24 25 26 27 28 29 30 31 32 33 34 35 36 37 38 39 40 41 42 43 44 45 46 47 48 49 50

452
AXUS43 KGID 102302
MISGRI

GID CWA HOURLY WEATHER ROUNDUP
NATIONAL WEATHER SERVICE HASTINGS NE
500 PM CST SUN DEC 10 2017

NOTE: "FAIR" INDICATES FEW OR NO CLOUDS BELOW 12,000 FEET WITH NO
SIGNIFICANT WEATHER AND/OR OBSTRUCTIONS TO VISIBILITY.

...SOUTH CENTRAL NEBRASKA...

CITY           SKY/WX    TMP DP  RH WIND       PRES   REMARKS
GRAND ISLAND   CLEAR     53  16  23 W7        30.13S
KEARNEY        CLEAR     57  15  19 W9        30.16F
HASTINGS       CLEAR     53  14  21 W9        30.14F
ORD            CLEAR     55  13  18 NW8       30.10F
YORK           CLEAR     55  16  21 W6        30.12S
AURORA         CLEAR     51  13  21 W6        30.12S
LEXINGTON      CLEAR     57  13  17 W12       30.18S
HOLDREGE       CLEAR     56  18  22 W9        30.18S
HEBRON         CLEAR     57  12  17 W3        30.13F

...NEBRASKA PANHANDLE...

CITY           SKY/WX    TMP DP  RH WIND       PRES   REMARKS
CHADRON        CLEAR     55   5  13 W7        30.20F
ALLIANCE       CLEAR     53   6  15 W17G23    30.22S
SCOTTSBLUFF    CLEAR     55   4  12 W10       30.26F
SIDNEY         CLEAR     53   1  12 NW12      30.28S

...WESTERN AND NORTH CENTRAL NEBRASKA...

CITY           SKY/WX    TMP DP  RH WIND       PRES   REMARKS
VALENTINE      CLEAR     53  14  21 W12       30.13S
AINSWORTH      CLEAR     53  16  23 W12       30.12S
ONEILL         CLEAR     51  20  29 NW6       30.10S
BROKEN BOW     CLEAR     58  13  17 NW12      30.14F
IMPERIAL       CLEAR     57   3  11 NW7       30.24F
NORTH PLATTE   CLEAR     54  14  20 W10       30.19F
MCCOOK         CLEAR     57   9  14 W7        30.21F

...EASTERN NEBRASKA...

CITY           SKY/WX    TMP DP  RH WIND       PRES   REMARKS
NORFOLK        CLEAR     47  18  31 W6        30.09R
SO SIOUX CITY  CLEAR     40  25  55 NW6       30.09R
TEKAMAH        CLEAR     45  22  40 NW5       30.10R
COLUMBUS       CLEAR     51  19  28 W7        30.11S
ALBION         CLEAR     51  17  26 NW5       30.11R
OMAHA EPPLEY   PTCLDY    45  24  43 NW6       30.10S
OFFUTT AFB     CLEAR     45  23  42 CALM      30.10S
MILLARD        CLEAR     53  26  35 W3        30.11S
LINCOLN        CLEAR     51  19  28 CALM      30.13S
NEBRASKA CITY  CLEAR     48  24  38 NW7       30.12R
BEATRICE       CLEAR     52  20  27 N3        30.12S
FALLS CITY     CLEAR     50  23  34 NW9       30.12R

...NORTHERN KANSAS...

CITY           SKY/WX    TMP DP  RH WIND       PRES   REMARKS
GOODLAND       CLEAR     54   3  12 NW7       30.28S
HILL CITY      CLEAR     62  15  16 W6        30.22F
NORTON         CLEAR     55   1  11 W9        30.20S
PHILLIPSBURG   CLEAR     61  10  13 W5        30.20S
SMITH CENTER   CLEAR     55  14  19 W7        30.19S
HAYS           CLEAR     61  16  17 W9        30.22S
RUSSELL        CLEAR     59  15  18 W9        30.19F
CONCORDIA      CLEAR     57  12  17 W8        30.15S
SALINA         CLEAR     58  19  22 W5        30.19R
TOPEKA         CLEAR     56  23  27 NW7       30.14R



USA.gov is the U.S. government's official web portal to all federal, state and local government web resources and services.